Henrik Krøyer Holme

KL  EN  DA
ASIAQ
Weather Now GREENLAND SURVEY
Updated [WGT/WGST] Temperature [°C] Wind [m/s] Air pressure [hPa] Relative humidity [%] Precipitation [mm]
Present Wind chill Speed Max
20.08 13:00-1,7-6,44,1 ⇗5,1101197n/a
20.08 12:00-1,7-6,44,1 ⇗5,1101197n/a
20.08 11:00-1,7-6,44,1 ⇗5,1101196n/a
20.08 10:00-0,8-4,63,1 ⇗4,1101193n/a
20.08 09:00-1,0-4,83,1 ⇗4,1101192n/a
20.08 08:00-1,4-5,33,1 ⇗4,1101194n/a
20.08 07:00-1,3-5,23,1 ⇗4,1101195n/a
20.08 06:00-1,7-5,12,6 ⇗4,1101299n/a
20.08 05:00-1,8-5,32,6 ⇗3,6101199n/a
20.08 04:00-1,2-4,52,6 ⇗3,1101199n/a
20.08 03:00-1,1-3,92,1 ⇗2,6101198n/a
20.08 02:00-1,0-2,91,5 ⇗2,6101199n/a
20.08 01:00-1,1-3,01,5 ⇗2,6101199n/a
20.08 00:00-0,9-3,62,1 ⇗3,1101199n/a
19.08 23:00-0,9-3,62,1 ⇗3,1101198n/a
19.08 22:00-0,9-2,81,5 ⇗2,1101198n/a
19.08 21:00-0,8-3,52,1 ⇗2,6101198n/a
19.08 20:00-0,50,00,5 ⇑1,0101098n/a
19.08 19:00-0,4-2,21,5 ⇗1,5101097n/a
19.08 18:00-0,30,01,0 ⇗2,1101095n/a
19.08 17:00-0,10,01,0 ⇑1,5101094n/a
19.08 16:000,10,01,0 ⇑1,5101089n/a
19.08 15:000,4-2,12,1 ⇑2,6101087n/a
19.08 14:000,4-2,12,1 ⇖3,1100988n/a
19.08 13:000,5-3,03,1 ⇖3,6100984n/a
Position: (80.649444444,-13.7119444444)

[Back]